Regional Weather Roundup
Issued by NWS

Home | Current Version | Previous Version | Graphics & Text | Print | Product List | Glossary On
Versions: 1 2 3 4 5 6 7 8 9 10 11 12 13 14 15 16 17 18 19 20 21 22 23 24 25 26 27 28 29 30 31 32 33 34 35 36 37 38 39 40 41 42 43 44 45 46 47 48 49 50
570
ASUS43 KMPX 250310
RWRMN
WEATHER ROUNDUP FOR MINNESOTA
NATIONAL WEATHER SERVICE TWIN CITIES/CHANHASSEN MN
1000 PM CDT FRI MAR 24 2017


NOTE: "FAIR" INDICATES FEW OR NO CLOUDS BELOW 12,000 FEET WITH NO
SIGNIFICANT WEATHER AND/OR OBSTRUCTIONS TO VISIBILITY. N/A MEANS
CURRENT SKY AND/OR WEATHER CONDITIONS ARE NOT AVAILABLE.

MNZ060>063-068>070-250400-
   Twin Cities Metro

CITY           SKY/WX    TMP DP  RH WIND       PRES   REMARKS
TWIN CITIES    CLOUDY    40  33  76 NE12G21   30.17F
ST PAUL        CLOUDY    40  35  83 NE8       30.18F
CRYSTAL        CLOUDY    39  31  72 NE9       30.16F
BLAINE         CLOUDY    39  36  87 NE12      30.17F
LAKEVILLE      CLOUDY    37  36  93 NE9       30.15S
EDEN PRAIRIE   CLOUDY    40  33  76 NE13G20   30.14F
SOUTH ST PAUL  CLOUDY    40  34  78 NE12G20   30.16F
LAKE ELMO      CLOUDY    37  34  87 NE14      30.17F
$$
MNZ001>005-007-008-013>017-022>024-027-028-250400-
   Northwest Minnesota

CITY           SKY/WX    TMP DP  RH WIND       PRES   REMARKS
BEMIDJI        CLOUDY    36  29  78 E6        30.21S
HALLOCK        CLEAR     32  28  86 CALM      30.25R
ROSEAU         CLEAR     32  27  80 E3        30.24S
WARROAD        CLEAR     30  27  86 NE6       30.25S WCI  24
THIEF RVR FALL CLEAR    N/A N/A N/A NE9       30.23R
CROOKSTON      CLEAR     30  28  93 N5        30.24S WCI  25
FOSSTON        CLEAR     28  28 100 NE3       30.20S
DETROIT LAKES  CLEAR     36  32  87 SE3       30.20S
MOORHEAD       CLEAR     32  28  86 N6        30.21F WCI  26
PARK RAPIDS    CLOUDY    38  27  64 E5        30.19S
MAHNOMEN       FAIR      32  29  88 E5        30.18F WCI  27
$$
MNZ006-009>011-018-025>026-250400-
   North Central Minnesota

CITY           SKY/WX    TMP DP  RH WIND       PRES   REMARKS
BAUDETTE       CLEAR     31  24  75 NE6       30.22S WCI  25
FLAG ISLAND    CLOUDY    34  25  69 NE3       30.24F
INTL FALLS     CLOUDY    35  26  69 E3        30.25R
WASKISH        CLOUDY    37  28  70 E5        30.23R
BIG FORK       CLOUDY    36  28  75 CALM      30.24R
LONGVILLE      CLOUDY    34  30  86 CALM      30.21S
GRAND RAPIDS   CLOUDY    35  31  85 CALM      30.24R
CRANE LAKE     CLOUDY    30  28  93 CALM      30.28R
ORR            CLOUDY    34  27  75 CALM      30.23R
COOK           CLOUDY    34  30  86 CALM      30.24S
WALKER         CLOUDY    35  29  79 CALM      30.21F
$$
MNZ012-019>021-037-250400-
   Northeast Minnesota

CITY           SKY/WX    TMP DP  RH WIND       PRES   REMARKS
DULUTH         FLURRIES  34  32  92 E12       30.21S WCI  25
ELY            CLOUDY    34  32  93 CALM      30.23F
HIBBING        CLOUDY    32  31  96 N3        30.22S
EVELETH        CLOUDY    34  32  92 E3        30.23S
DULUTH HARBOR  CLOUDY    36  34  93 NE14      30.25R
TWO HARBORS    CLOUDY    36  30  80 NE5       30.23S
SILVER BAY     CLOUDY    34  32  93 NE5       30.23F WCI  30
GRAND MARAIS     N/A     34  32  92 CALM      30.28R
G MARAIS ARPRT CLOUDY    30  23  74 NE5       30.24S WCI  25
$$
MNZ029>031-032-039>041-046>048-054>057-064-250400-
   West Central Minnesota

CITY           SKY/WX    TMP DP  RH WIND       PRES   REMARKS
FERGUS FALLS   CLEAR     34  28  80 E5        30.22R WCI  30
WHEATON        CLEAR     32  28  86 N8        30.22R WCI  25
MORRIS         CLOUDY    34  30  86 E6        30.17R WCI  29
ALEXANDRIA     CLOUDY    35  30  82 E9        30.18R WCI  28
ELBOW LAKE     FAIR      34  32  90 CALM      30.19R
WADENA         CLOUDY    36  30  80 NE7       30.19S
GLENWOOD       CLOUDY    36  30  80 E12       30.17S
APPLETON       CLEAR     36  32  87 CALM      30.18S
BENSON         CLEAR     37  28  70 SE3       30.20R
ORTONVILLE     MOCLDY    36  30  80 NE3       30.18S
MADISON        CLOUDY    39  37  93 E6        30.18S
WILLMAR        CLOUDY    39  34  81 E10       30.18S
$$
MNZ033>034-036-042>043-049>051-058-059-250400-
   Central Minnesota

CITY           SKY/WX    TMP DP  RH WIND       PRES   REMARKS
ST CLOUD       CLOUDY    39  32  76 E9        30.17F
SAUK CENTRE    CLOUDY    37  31  79 E9        30.18S
PAYNESVILLE      N/A     38  32  79 E12G18    30.18S
AITKIN         CLOUDY    37  30  75 NE5       30.19R
PINE RIVER     CLOUDY    37  30  75 NE3       30.24R
BRAINERD       CLOUDY    35  29  78 NE6       30.20R WCI  30
STAPLES        CLOUDY    37  28  70 E7        30.20R
LONG PRAIRIE   CLOUDY    36  32  87 N9        30.18S
LITTLE FALLS   CLOUDY    36  30  80 NE3       30.20S
LITCHFIELD     CLOUDY    39  34  81 NE9G16    30.18R
BUFFALO        CLOUDY    37  32  81 NE13G18   30.19S
MAPLE LAKE     CLOUDY    39  34  82 NE15      30.19S
HUTCHINSON     CLOUDY    38  35  87 NE16      30.18S
$$
MNZ037-044-045-052-053-250400-
   East Central Minnesota

CITY           SKY/WX    TMP DP  RH WIND       PRES   REMARKS
PRINCETON      CLOUDY    39  32  75 NE8       30.19S
MORA           CLOUDY    34  30  86 NE3       30.22S
CAMBRIDGE      CLOUDY    39  30  70 NE7       30.18S
RUSH CITY      CLOUDY    38  32  79 NE8       30.20F
MOOSE LAKE     CLOUDY    36  32  87 E5        30.20R
HINCKLEY       MOCLDY    32  32 100 NE6       30.20S WCI  26
CLOQUET        CLOUDY    36  30  80 E7        30.21R
MCGREGOR       CLOUDY    36  32  87 NE3       30.22R
$$
MNZ071>073-080-081-089-090-097-098-250400-
   Southwest Minnesota

CITY           SKY/WX    TMP DP  RH WIND       PRES   REMARKS
MONTEVIDEO     CLEAR     32  30  93 E7        30.19S WCI  26
GRANITE FALLS  CLOUDY    40  35  81 NE10      30.18S
CANBY          PTCLDY    37  35  92 CALM      30.17F
MARSHALL       CLOUDY    37  33  85 E10       30.17S
REDWOOD FALLS  CLOUDY    38  32  79 NE7       30.16S
OLIVIA         CLOUDY    36  32  87 NE12      30.16S
PIPESTONE      CLOUDY    36  30  80 E13G21    30.12S
WINDOM         CLOUDY    37  36  93 NE12      30.12S
WORTHINGTON    CLOUDY    35  34  96 NE16      30.12R FOG     WCI  25
JACKSON        CLOUDY    36  34  93 NE14      30.12R FOG
TRACY          CLOUDY    37  35  90 NE15      30.14F
SLAYTON        CLOUDY    35  33  94 NE12      30.13S WCI  26
$$
MNZ065>067-074>077-082>085-091>093-250400-
   South Central Minnesota

CITY           SKY/WX    TMP DP  RH WIND       PRES   REMARKS
MANKATO        CLOUDY    40  35  83 NE12      30.13F
NEW ULM        CLOUDY    37  34  87 NE12G18   30.13F
ST JAMES       CLOUDY    37  36  93 N12       30.14S
FAIRMONT       CLOUDY    39  36  89 N12       30.11S
GLENCOE        CLOUDY    38  36  91 NE6       30.15F
FARIBAULT      CLOUDY    39  36  87 N12       30.14R
OWATONNA       CLOUDY    39  36  87 NE16      30.12S
WASECA         CLOUDY    39  36  87 N14       30.13S
ALBERT LEA     CLOUDY    39  37  93 NE13      30.09F
$$
MNZ078>079-086>088-094>096-250400-
   Southeast Minnesota

CITY           SKY/WX    TMP DP  RH WIND       PRES   REMARKS
ROCHESTER      CLOUDY    38  37  97 NE17      30.10S
RED WING       CLOUDY    41  34  75 E6        30.16R
STANTON        CLOUDY    40  37  89 NE13      30.13S FOG
DODGE CENTER   CLOUDY    37  36  93 NE14G20   30.11S
WINONA         CLOUDY    41  36  81 NE6       30.14S
AUSTIN         CLOUDY    39  36  87 NE15      30.10R
PRESTON        CLOUDY    38  36  92 NE14G20   30.10R
$$
ABBREVIATIONS USED IN REMARKS
   TC - TEMPERATURES IN CELSIUS
  WCI - WIND CHILL INDEX
   HX - HEAT INDEX
  VSB - VISIBILITY
$$




USA.gov is the U.S. government's official web portal to all federal, state and local government web resources and services.